Location: Cantaing
(50.1487°N, 3.1675°E)
Time: 06:56:39
(UTC+00:00)

IRS-1D - Pass Details

Date: 14 January 2026
Orbit: 737 x 810 km, 98.8° (Epoch: 10 February)

Event Time Altitude Azimuth Distance (km) Brightness Sun altitude
Rises 05:54:25 0° 10° (N) 3,326 6.8 -16.5°
Reaches altitude 10° 05:56:51 10° 3° (N) 2,398 5.9 -16.1°
Maximum altitude 06:01:46 40° 296° (WNW) 1,178 4.0 -15.3°
Drops below altitude 10° 06:06:42 10° 228° (SW) 2,394 5.8 -14.6°
Sets 06:09:08 0° 221° (SW) 3,319 6.6 -14.2°
